Time,TemperatureF,DewpointF,PressureIn,WindDirection,WindDirectionDegrees,WindSpeedMPH,WindSpeedGustMPH,Humidity,HourlyPrecipIn,Conditions,Clouds,dailyrainin,SoftwareType,DateUTC
2013-02-15 00:00:00,26.2,23.7,26.97,WSW,256,0.0,0.0,90,0.00,,,0.13,Wunderground v.1.15,2013-02-15 05:00:00,
2013-02-15 00:01:00,26.1,23.6,26.97,WSW,257,0.0,0.0,90,0.00,,,0.00,Wunderground v.1.15,2013-02-15 05:01:00,
2013-02-15 00:02:00,26.1,23.6,26.97,WSW,256,0.0,0.0,90,0.00,,,0.00,Wunderground v.1.15,2013-02-15 05:02:00,
2013-02-15 00:07:00,26.0,23.5,26.97,WSW,257,0.0,0.0,90,0.00,,,0.00,Wunderground v.1.15,2013-02-15 05:07:00,
2013-02-15 00:13:00,25.8,23.3,26.97,WSW,257,0.0,0.0,90,0.00,,,0.00,Wunderground v.1.15,2013-02-15 05:13:00,
2013-02-15 00:18:00,25.6,23.1,26.97,WSW,256,0.0,0.0,90,0.00,,,0.00,Wunderground v.1.15,2013-02-15 05:18:00,
2013-02-15 00:19:00,25.6,23.1,26.97,WSW,256,0.0,0.0,90,0.00,,,0.00,Wunderground v.1.15,2013-02-15 05:19:00,
2013-02-15 00:24:00,25.5,23.0,26.97,WSW,257,0.0,0.0,90,0.00,,,0.00,Wunderground v.1.15,2013-02-15 05:24:00,
2013-02-15 00:30:00,25.5,23.0,26.48,WSW,257,0.0,0.0,90,0.00,,,0.00,Wunderground v.1.15,2013-02-15 05:30:00,
2013-02-15 00:35:00,25.6,23.1,26.48,WSW,256,0.0,0.0,90,0.00,,,0.00,Wunderground v.1.15,2013-02-15 05:35:00,
2013-02-15 00:41:00,25.7,23.2,26.48,WSW,256,0.0,0.0,90,0.00,,,0.00,Wunderground v.1.15,2013-02-15 05:41:00,
2013-02-15 00:47:00,26.0,23.5,26.48,WSW,256,0.0,0.0,90,0.00,,,0.00,Wunderground v.1.15,2013-02-15 05:47:00,
2013-02-15 00:52:00,26.2,23.7,26.48,WSW,257,0.0,0.0,90,0.00,,,0.00,Wunderground v.1.15,2013-02-15 05:52:00,
2013-02-15 00:58:00,27.2,24.9,26.48,WSW,257,0.0,0.0,91,0.00,,,0.00,Wunderground v.1.15,2013-02-15 05:58:00,
2013-02-15 01:03:00,28.1,25.8,26.48,WSW,257,0.0,0.0,91,0.00,,,0.00,Wunderground v.1.15,2013-02-15 06:03:00,
2013-02-15 01:09:00,28.5,26.2,26.48,WSW,256,0.0,0.0,91,0.00,,,0.00,Wunderground v.1.15,2013-02-15 06:09:00,
2013-02-15 01:15:00,28.8,26.5,26.43,WSW,256,0.0,0.0,91,0.00,,,0.00,Wunderground v.1.15,2013-02-15 06:15:00,
2013-02-15 01:21:00,28.9,26.6,26.43,WSW,257,0.0,0.0,91,0.00,,,0.00,Wunderground v.1.15,2013-02-15 06:21:00,
2013-02-15 01:26:00,29.3,27.0,26.43,WSW,257,0.0,0.0,91,0.00,,,0.00,Wunderground v.1.15,2013-02-15 06:26:00,
2013-02-15 01:32:00,29.6,27.3,26.43,WSW,256,0.0,0.0,91,0.00,,,0.00,Wunderground v.1.15,2013-02-15 06:32:00,
2013-02-15 01:38:00,29.8,27.5,26.36,WSW,257,0.0,0.0,91,0.00,,,0.00,Wunderground v.1.15,2013-02-15 06:38:00,
2013-02-15 01:44:00,30.0,27.7,26.54,WSW,257,0.0,0.0,91,0.00,,,0.00,Wunderground v.1.15,2013-02-15 06:44:00,
2013-02-15 01:49:00,30.2,27.9,26.54,WSW,256,0.0,0.0,91,0.00,,,0.00,Wunderground v.1.15,2013-02-15 06:49:00,
2013-02-15 01:55:00,30.2,27.9,26.45,WSW,256,0.0,0.0,91,0.00,,,0.00,Wunderground v.1.15,2013-02-15 06:55:00,
2013-02-15 02:00:00,30.0,27.7,26.45,WSW,257,0.0,0.0,91,0.00,,,0.00,Wunderground v.1.15,2013-02-15 07:00:00,
2013-02-15 02:06:00,29.7,27.1,26.39,WSW,256,0.0,0.0,90,0.00,,,0.00,Wunderground v.1.15,2013-02-15 07:06:00,
2013-02-15 02:12:00,29.5,26.9,26.39,WSW,257,0.0,0.0,90,0.00,,,0.00,Wunderground v.1.15,2013-02-15 07:12:00,
2013-02-15 02:18:00,29.2,26.6,26.39,WSW,256,0.0,0.0,90,0.00,,,0.00,Wunderground v.1.15,2013-02-15 07:18:00,
2013-02-15 02:24:00,29.0,26.4,26.39,WSW,257,0.0,0.0,90,0.00,,,0.00,Wunderground v.1.15,2013-02-15 07:24:00,
2013-02-15 02:30:00,29.2,26.6,26.39,WSW,257,0.0,0.0,90,0.00,,,0.00,Wunderground v.1.15,2013-02-15 07:30:00,
2013-02-15 02:35:00,29.2,26.6,26.39,WSW,257,0.0,0.0,90,0.00,,,0.00,Wunderground v.1.15,2013-02-15 07:35:00,
2013-02-15 02:41:00,29.2,26.6,26.39,WSW,257,0.0,0.0,90,0.00,,,0.00,Wunderground v.1.15,2013-02-15 07:41:00,
2013-02-15 02:47:00,29.2,26.6,26.39,WSW,257,0.0,0.0,90,0.00,,,0.00,Wunderground v.1.15,2013-02-15 07:47:00,
2013-02-15 02:52:00,29.3,27.0,28.95,WSW,257,0.0,0.0,91,0.00,,,0.00,Wunderground v.1.15,2013-02-15 07:52:00,
2013-02-15 02:58:00,29.6,27.3,26.50,WSW,257,0.0,0.0,91,0.00,,,0.00,Wunderground v.1.15,2013-02-15 07:58:00,
2013-02-15 03:03:00,29.9,27.6,26.50,WSW,257,0.0,0.0,91,0.00,,,0.00,Wunderground v.1.15,2013-02-15 08:03:00,
2013-02-15 03:09:00,30.0,27.7,26.50,WSW,257,0.0,0.0,91,0.00,,,0.00,Wunderground v.1.15,2013-02-15 08:09:00,
2013-02-15 03:15:00,29.9,27.6,26.50,WSW,257,0.0,0.0,91,0.00,,,0.00,Wunderground v.1.15,2013-02-15 08:15:00,
2013-02-15 03:20:00,29.8,27.2,26.50,WSW,256,0.0,0.0,90,0.00,,,0.00,Wunderground v.1.15,2013-02-15 08:20:00,
2013-02-15 03:26:00,29.6,27.0,26.50,WSW,257,0.0,0.0,90,0.00,,,0.00,Wunderground v.1.15,2013-02-15 08:26:00,
2013-02-15 03:32:00,29.3,26.7,26.50,WSW,257,0.0,0.0,90,0.00,,,0.00,Wunderground v.1.15,2013-02-15 08:32:00,
2013-02-15 03:37:00,29.0,26.4,26.50,WSW,257,0.0,0.0,90,0.00,,,0.00,Wunderground v.1.15,2013-02-15 08:37:00,
2013-02-15 03:43:00,28.8,26.2,26.50,WSW,257,0.0,0.0,90,0.00,,,0.00,Wunderground v.1.15,2013-02-15 08:43:00,
2013-02-15 03:48:00,28.5,25.9,26.53,WSW,256,0.0,0.0,90,0.00,,,0.00,Wunderground v.1.15,2013-02-15 08:48:00,
2013-02-15 03:54:00,28.3,25.7,26.53,WSW,257,0.0,0.0,90,0.00,,,0.00,Wunderground v.1.15,2013-02-15 08:54:00,
2013-02-15 04:00:00,28.1,25.5,26.53,WSW,256,0.0,0.0,90,0.00,,,0.00,Wunderground v.1.15,2013-02-15 09:00:00,
2013-02-15 04:06:00,27.9,25.3,26.53,WSW,256,0.0,0.0,90,0.00,,,0.00,Wunderground v.1.15,2013-02-15 09:06:00,
2013-02-15 04:12:00,27.8,25.2,26.53,WSW,257,0.0,0.0,90,0.00,,,0.00,Wunderground v.1.15,2013-02-15 09:12:00,
2013-02-15 04:17:00,27.7,25.2,26.53,WSW,257,0.0,0.0,90,0.00,,,0.00,Wunderground v.1.15,2013-02-15 09:17:00,
2013-02-15 04:23:00,27.6,25.1,26.53,WSW,257,0.0,0.0,90,0.00,,,0.00,Wunderground v.1.15,2013-02-15 09:23:00,
2013-02-15 04:28:00,27.4,24.9,26.37,WSW,256,0.0,0.0,90,0.00,,,0.00,Wunderground v.1.15,2013-02-15 09:28:00,
2013-02-15 04:33:00,27.3,25.0,26.37,WSW,257,0.0,0.0,91,0.00,,,0.00,Wunderground v.1.15,2013-02-15 09:33:00,
2013-02-15 04:39:00,27.2,24.9,26.37,WSW,257,0.0,0.0,91,0.00,,,0.00,Wunderground v.1.15,2013-02-15 09:39:00,
2013-02-15 04:45:00,27.1,24.8,26.37,WSW,257,0.0,0.0,91,0.00,,,0.00,Wunderground v.1.15,2013-02-15 09:45:00,
2013-02-15 04:51:00,27.0,24.7,26.37,WSW,257,0.0,0.0,91,0.00,,,0.00,Wunderground v.1.15,2013-02-15 09:51:00,
2013-02-15 04:57:00,26.9,24.6,26.37,WSW,257,0.0,0.0,91,0.00,,,0.00,Wunderground v.1.15,2013-02-15 09:57:00,
2013-02-15 05:02:00,26.9,24.6,26.37,WSW,256,0.0,0.0,91,0.00,,,0.00,Wunderground v.1.15,2013-02-15 10:02:00,
2013-02-15 05:08:00,26.8,24.5,27.61,WSW,256,0.0,0.0,91,0.00,,,0.00,Wunderground v.1.15,2013-02-15 10:08:00,
2013-02-15 05:14:00,26.6,24.3,26.46,WSW,256,0.0,0.0,91,0.00,,,0.00,Wunderground v.1.15,2013-02-15 10:14:00,
2013-02-15 05:19:00,26.4,24.1,26.46,WSW,257,0.0,0.0,91,0.00,,,0.00,Wunderground v.1.15,2013-02-15 10:19:00,
2013-02-15 05:25:00,26.2,23.9,26.46,WSW,257,0.0,0.0,91,0.00,,,0.00,Wunderground v.1.15,2013-02-15 10:25:00,
2013-02-15 05:31:00,26.1,23.8,26.46,WSW,257,0.0,0.0,91,0.00,,,0.00,Wunderground v.1.15,2013-02-15 10:31:00,
2013-02-15 05:36:00,25.9,23.6,26.46,WSW,256,0.0,0.0,91,0.00,,,0.00,Wunderground v.1.15,2013-02-15 10:36:00,
2013-02-15 05:42:00,25.8,23.5,26.46,WSW,256,0.0,0.0,91,0.00,,,0.00,Wunderground v.1.15,2013-02-15 10:42:00,
2013-02-15 05:48:00,25.6,23.3,26.46,WSW,256,0.0,0.0,91,0.00,,,0.00,Wunderground v.1.15,2013-02-15 10:48:00,
2013-02-15 05:54:00,25.6,23.3,26.43,WSW,257,0.0,0.0,91,0.00,,,0.00,Wunderground v.1.15,2013-02-15 10:54:00,
2013-02-15 06:00:00,25.5,23.2,26.43,WSW,256,0.0,0.0,91,0.00,,,0.00,Wunderground v.1.15,2013-02-15 11:00:00,
2013-02-15 06:06:00,25.4,23.1,26.43,WSW,256,0.0,0.0,91,0.00,,,0.00,Wunderground v.1.15,2013-02-15 11:06:00,
2013-02-15 06:11:00,25.4,23.1,26.43,WSW,257,0.0,0.0,91,0.00,,,0.00,Wunderground v.1.15,2013-02-15 11:11:00,
2013-02-15 06:17:00,25.5,23.2,26.43,WSW,257,0.0,0.0,91,0.00,,,0.00,Wunderground v.1.15,2013-02-15 11:17:00,
2013-02-15 06:22:00,25.5,23.5,26.43,WSW,256,0.0,0.0,92,0.00,,,0.00,Wunderground v.1.15,2013-02-15 11:22:00,
2013-02-15 06:28:00,25.6,23.6,26.43,WSW,256,0.0,0.0,92,0.00,,,0.00,Wunderground v.1.15,2013-02-15 11:28:00,
2013-02-15 06:33:00,25.7,23.7,26.43,WSW,257,0.0,0.0,92,0.00,,,0.00,Wunderground v.1.15,2013-02-15 11:33:00,
2013-02-15 06:39:00,25.8,23.8,26.43,WSW,257,0.0,0.0,92,0.00,,,0.00,Wunderground v.1.15,2013-02-15 11:39:00,
2013-02-15 06:45:00,25.9,23.9,26.43,WSW,257,0.0,0.0,92,0.00,,,0.00,Wunderground v.1.15,2013-02-15 11:45:00,
2013-02-15 06:50:00,25.8,23.8,26.43,WSW,256,0.0,0.0,92,0.00,,,0.00,Wunderground v.1.15,2013-02-15 11:50:00,
2013-02-15 06:56:00,25.8,23.8,26.43,WSW,256,0.0,0.0,92,0.00,,,0.00,Wunderground v.1.15,2013-02-15 11:56:00,
2013-02-15 07:01:00,25.8,23.8,26.43,WSW,256,0.0,0.0,92,0.00,,,0.00,Wunderground v.1.15,2013-02-15 12:01:00,
2013-02-15 07:06:00,25.8,23.8,26.43,WSW,257,0.0,0.0,92,0.00,,,0.00,Wunderground v.1.15,2013-02-15 12:06:00,
2013-02-15 07:12:00,26.0,24.0,26.43,WSW,256,0.0,0.0,92,0.00,,,0.00,Wunderground v.1.15,2013-02-15 12:12:00,
2013-02-15 07:18:00,26.2,24.2,26.43,WSW,257,0.0,0.0,92,0.00,,,0.00,Wunderground v.1.15,2013-02-15 12:18:00,
2013-02-15 07:24:00,26.6,24.6,26.43,WSW,256,0.0,0.0,92,0.00,,,0.00,Wunderground v.1.15,2013-02-15 12:24:00,
2013-02-15 07:30:00,27.3,25.3,26.43,WSW,256,0.0,0.0,92,0.00,,,0.00,Wunderground v.1.15,2013-02-15 12:30:00,
2013-02-15 07:35:00,28.7,26.9,26.43,WSW,257,0.0,1.0,93,0.00,,,0.00,Wunderground v.1.15,2013-02-15 12:35:00,
2013-02-15 07:41:00,29.3,27.5,26.43,WSW,257,0.0,0.0,93,0.00,,,0.00,Wunderground v.1.15,2013-02-15 12:41:00,
2013-02-15 07:47:00,29.5,27.7,26.43,WSW,257,0.0,0.0,93,0.00,,,0.00,Wunderground v.1.15,2013-02-15 12:47:00,
2013-02-15 07:52:00,29.7,27.9,26.43,WSW,256,0.0,0.0,93,0.00,,,0.00,Wunderground v.1.15,2013-02-15 12:52:00,
2013-02-15 07:58:00,30.1,28.3,26.43,WSW,257,0.0,0.0,93,0.00,,,0.00,Wunderground v.1.15,2013-02-15 12:58:00,
2013-02-15 08:03:00,30.4,28.6,26.49,WSW,257,0.0,0.0,93,0.00,,,0.00,Wunderground v.1.15,2013-02-15 13:03:00,
2013-02-15 08:09:00,30.9,29.1,26.49,WSW,257,0.0,0.0,93,0.00,,,0.00,Wunderground v.1.15,2013-02-15 13:09:00,
2013-02-15 08:15:00,31.5,29.7,26.49,WSW,257,0.0,0.0,93,0.00,,,0.00,Wunderground v.1.15,2013-02-15 13:15:00,
2013-02-15 08:21:00,32.3,30.5,26.49,WSW,257,0.0,0.0,93,0.00,,,0.00,Wunderground v.1.15,2013-02-15 13:21:00,
2013-02-15 08:26:00,32.8,31.0,26.49,NW,304,0.0,0.0,93,0.00,,,0.01,Wunderground v.1.15,2013-02-15 13:26:00,
2013-02-15 08:32:00,33.4,31.6,26.49,West,278,0.0,3.0,93,0.00,,,0.01,Wunderground v.1.15,2013-02-15 13:32:00,
2013-02-15 08:38:00,34.1,32.3,26.49,West,277,0.0,3.0,93,0.00,,,0.01,Wunderground v.1.15,2013-02-15 13:38:00,
2013-02-15 08:43:00,34.6,32.5,26.49,West,278,1.0,4.0,92,0.00,,,0.01,Wunderground v.1.15,2013-02-15 13:43:00,
2013-02-15 08:48:00,35.3,33.2,26.90,West,276,1.0,4.0,92,0.00,,,0.01,Wunderground v.1.15,2013-02-15 13:48:00,
2013-02-15 08:54:00,35.9,33.5,26.90,West,276,0.0,1.0,91,0.00,,,0.01,Wunderground v.1.15,2013-02-15 13:54:00,
2013-02-15 09:00:00,36.4,33.5,26.90,West,276,0.0,0.0,89,0.00,,,0.01,Wunderground v.1.15,2013-02-15 14:00:00,
2013-02-15 09:06:00,36.9,33.7,26.90,West,276,0.0,0.0,88,0.00,,,0.01,Wunderground v.1.15,2013-02-15 14:06:00,
2013-02-15 09:11:00,37.5,34.0,26.90,West,276,0.0,1.0,87,0.00,,,0.01,Wunderground v.1.15,2013-02-15 14:11:00,
2013-02-15 09:17:00,38.0,33.9,26.68,West,276,0.0,1.0,85,0.00,,,0.01,Wunderground v.1.15,2013-02-15 14:17:00,
2013-02-15 09:23:00,38.5,34.4,27.28,West,276,0.0,0.0,85,0.00,,,0.01,Wunderground v.1.15,2013-02-15 14:23:00,
2013-02-15 09:29:00,39.1,34.4,27.28,West,276,0.0,2.0,83,0.00,,,0.01,Wunderground v.1.15,2013-02-15 14:29:00,
2013-02-15 09:34:00,39.6,34.6,27.28,West,276,1.0,1.0,82,0.00,,,0.01,Wunderground v.1.15,2013-02-15 14:34:00,
2013-02-15 09:39:00,40.2,34.8,27.28,West,276,1.0,2.0,81,0.00,,,0.01,Wunderground v.1.15,2013-02-15 14:39:00,
2013-02-15 09:45:00,40.9,34.9,27.28,West,276,0.0,1.0,79,0.00,,,0.01,Wunderground v.1.15,2013-02-15 14:45:00,
2013-02-15 09:51:00,41.6,34.9,26.62,SW,236,1.0,1.0,77,0.00,,,0.01,Wunderground v.1.15,2013-02-15 14:51:00,
2013-02-15 09:57:00,42.4,35.4,26.62,SW,234,1.0,5.0,76,0.00,,,0.01,Wunderground v.1.15,2013-02-15 14:57:00,
2013-02-15 10:02:00,43.0,34.9,26.62,WSW,237,2.0,5.0,73,0.00,,,0.01,Wunderground v.1.15,2013-02-15 15:02:00,
2013-02-15 10:08:00,43.3,34.9,26.62,WSW,249,3.0,5.0,72,0.00,,,0.01,Wunderground v.1.15,2013-02-15 15:08:00,
2013-02-15 10:14:00,43.8,35.4,26.62,West,263,3.0,7.0,72,0.00,,,0.01,Wunderground v.1.15,2013-02-15 15:14:00,
2013-02-15 10:19:00,44.2,35.4,26.62,West,259,2.0,7.0,71,0.00,,,0.01,Wunderground v.1.15,2013-02-15 15:19:00,
2013-02-15 10:25:00,44.6,35.4,26.62,West,265,2.0,5.0,70,0.00,,,0.01,Wunderground v.1.15,2013-02-15 15:25:00,
2013-02-15 10:31:00,45.2,36.0,26.62,West,260,2.0,5.0,70,0.00,,,0.01,Wunderground v.1.15,2013-02-15 15:31:00,
2013-02-15 10:36:00,45.8,35.5,26.62,WSW,242,2.0,5.0,67,0.00,,,0.01,Wunderground v.1.15,2013-02-15 15:36:00,
2013-02-15 10:42:00,46.2,35.8,26.62,WSW,248,2.0,4.0,67,0.00,,,0.01,Wunderground v.1.15,2013-02-15 15:42:00,
2013-02-15 10:48:00,46.4,35.3,26.62,West,273,3.0,9.0,65,0.00,,,0.01,Wunderground v.1.15,2013-02-15 15:48:00,
2013-02-15 10:54:00,46.8,35.6,26.42,West,261,4.0,8.0,65,0.00,,,0.01,Wunderground v.1.15,2013-02-15 15:54:00,
2013-02-15 11:00:00,47.5,35.9,26.42,West,268,3.0,8.0,64,0.00,,,0.01,Wunderground v.1.15,2013-02-15 16:00:00,
2013-02-15 11:06:00,48.2,36.2,26.42,West,273,4.0,8.0,63,0.00,,,0.01,Wunderground v.1.15,2013-02-15 16:06:00,
2013-02-15 11:12:00,48.9,36.9,26.42,West,269,4.0,5.0,63,0.00,,,0.01,Wunderground v.1.15,2013-02-15 16:12:00,
2013-02-15 11:18:00,49.4,36.5,26.42,WSW,248,2.0,9.0,61,0.00,,,0.01,Wunderground v.1.15,2013-02-15 16:18:00,
2013-02-15 11:24:00,49.6,36.3,26.42,West,259,3.0,7.0,60,0.00,,,0.01,Wunderground v.1.15,2013-02-15 16:24:00,
2013-02-15 11:29:00,49.9,36.6,26.42,WSW,248,4.0,7.0,60,0.00,,,0.01,Wunderground v.1.15,2013-02-15 16:29:00,
2013-02-15 11:34:00,50.2,36.8,26.42,SW,235,3.0,6.0,60,0.00,,,0.01,Wunderground v.1.15,2013-02-15 16:34:00,
2013-02-15 11:40:00,50.8,37.0,26.42,WSW,240,2.0,8.0,59,0.00,,,0.01,Wunderground v.1.15,2013-02-15 16:40:00,
2013-02-15 11:46:00,50.7,36.9,26.42,West,279,3.0,10.0,59,0.00,,,0.01,Wunderground v.1.15,2013-02-15 16:46:00,
2013-02-15 11:51:00,51.2,37.8,26.42,WSW,240,3.0,7.0,60,0.00,,,0.01,Wunderground v.1.15,2013-02-15 16:51:00,
2013-02-15 11:57:00,51.0,37.2,26.42,West,263,3.0,8.0,59,0.00,,,0.01,Wunderground v.1.15,2013-02-15 16:57:00,
2013-02-15 12:03:00,51.0,36.7,26.42,WSW,255,6.0,12.0,58,0.00,,,0.01,Wunderground v.1.15,2013-02-15 17:03:00,
2013-02-15 12:09:00,51.4,38.0,26.42,WSW,254,5.0,12.0,60,0.00,,,0.01,Wunderground v.1.15,2013-02-15 17:09:00,
2013-02-15 12:14:00,51.6,37.3,26.42,West,260,4.0,6.0,58,0.00,,,0.01,Wunderground v.1.15,2013-02-15 17:14:00,
2013-02-15 12:20:00,51.9,37.1,26.42,WSW,248,5.0,5.0,57,0.00,,,0.01,Wunderground v.1.15,2013-02-15 17:20:00,
2013-02-15 12:25:00,52.2,37.9,26.42,WSW,242,4.0,9.0,58,0.00,,,0.01,Wunderground v.1.15,2013-02-15 17:25:00,
2013-02-15 12:31:00,52.4,37.2,26.42,WSW,237,4.0,4.0,56,0.00,,,0.01,Wunderground v.1.15,2013-02-15 17:31:00,
2013-02-15 12:36:00,52.2,37.4,26.42,WSW,248,4.0,9.0,57,0.00,,,0.01,Wunderground v.1.15,2013-02-15 17:36:00,
2013-02-15 12:42:00,52.4,37.6,26.42,SW,231,4.0,6.0,57,0.00,,,0.01,Wunderground v.1.15,2013-02-15 17:42:00,
2013-02-15 12:48:00,52.8,38.0,26.42,WSW,244,3.0,6.0,57,0.00,,,0.01,Wunderground v.1.15,2013-02-15 17:48:00,
2013-02-15 12:54:00,53.2,37.4,26.42,SW,224,3.0,3.0,55,0.00,,,0.01,Wunderground v.1.15,2013-02-15 17:54:00,
2013-02-15 12:59:00,53.1,37.3,26.42,WSW,252,4.0,11.0,55,0.00,,,0.01,Wunderground v.1.15,2013-02-15 17:59:00,
2013-02-15 13:05:00,53.1,37.3,26.42,WSW,251,5.0,10.0,55,0.00,,,0.01,Wunderground v.1.15,2013-02-15 18:05:00,
2013-02-15 13:11:00,53.3,37.1,26.42,SW,234,5.0,7.0,54,0.00,,,0.01,Wunderground v.1.15,2013-02-15 18:11:00,
2013-02-15 13:16:00,53.2,37.0,26.42,West,269,5.0,10.0,54,0.00,,,0.01,Wunderground v.1.15,2013-02-15 18:16:00,
2013-02-15 13:22:00,53.2,37.0,26.42,West,261,5.0,5.0,54,0.00,,,0.01,Wunderground v.1.15,2013-02-15 18:22:00,
2013-02-15 13:27:00,54.0,37.2,26.42,West,263,3.0,9.0,53,0.00,,,0.01,Wunderground v.1.15,2013-02-15 18:27:00,
2013-02-15 13:33:00,54.4,37.1,26.42,SSW,199,5.0,10.0,52,0.00,,,0.01,Wunderground v.1.15,2013-02-15 18:33:00,
2013-02-15 13:39:00,54.8,37.5,26.42,West,265,4.0,10.0,52,0.00,,,0.01,Wunderground v.1.15,2013-02-15 18:39:00,
2013-02-15 13:44:00,54.9,37.1,26.42,West,271,3.0,8.0,51,0.00,,,0.01,Wunderground v.1.15,2013-02-15 18:44:00,
2013-02-15 13:50:00,54.6,36.8,26.42,West,273,5.0,5.0,51,0.00,,,0.01,Wunderground v.1.15,2013-02-15 18:50:00,
2013-02-15 13:55:00,54.5,36.7,26.42,West,261,5.0,7.0,51,0.00,,,0.01,Wunderground v.1.15,2013-02-15 18:55:00,
2013-02-15 14:00:00,54.2,36.5,26.42,SW,229,4.0,4.0,51,0.00,,,0.01,Wunderground v.1.15,2013-02-15 19:00:00,
2013-02-15 14:06:00,54.4,37.1,26.42,SSW,201,3.0,5.0,52,0.00,,,0.01,Wunderground v.1.15,2013-02-15 19:06:00,
2013-02-15 14:11:00,54.5,36.7,26.42,WSW,248,2.0,7.0,51,0.00,,,0.01,Wunderground v.1.15,2013-02-15 19:11:00,
2013-02-15 14:17:00,54.5,36.7,26.42,WSW,255,3.0,7.0,51,0.00,,,0.01,Wunderground v.1.15,2013-02-15 19:17:00,
2013-02-15 14:22:00,54.5,36.7,26.42,WSW,250,3.0,6.0,51,0.00,,,0.01,Wunderground v.1.15,2013-02-15 19:22:00,
2013-02-15 14:28:00,54.9,37.6,26.42,West,276,3.0,7.0,52,0.00,,,0.01,Wunderground v.1.15,2013-02-15 19:28:00,
2013-02-15 14:33:00,55.3,37.5,26.42,SW,236,3.0,6.0,51,0.00,,,0.01,Wunderground v.1.15,2013-02-15 19:33:00,
2013-02-15 14:39:00,54.9,37.1,26.42,West,281,4.0,8.0,51,0.00,,,0.01,Wunderground v.1.15,2013-02-15 19:39:00,
2013-02-15 14:45:00,54.8,37.0,26.42,WSW,250,4.0,8.0,51,0.00,,,0.01,Wunderground v.1.15,2013-02-15 19:45:00,
2013-02-15 14:50:00,55.1,37.8,26.42,WSW,248,4.0,5.0,52,0.00,,,0.01,Wunderground v.1.15,2013-02-15 19:50:00,
2013-02-15 14:56:00,55.1,36.8,26.42,West,259,4.0,6.0,50,0.00,,,0.01,Wunderground v.1.15,2013-02-15 19:56:00,
2013-02-15 15:02:00,55.0,36.7,26.42,West,268,4.0,9.0,50,0.00,,,0.01,Wunderground v.1.15,2013-02-15 20:02:00,
2013-02-15 15:07:00,54.4,36.6,26.42,West,263,4.0,9.0,51,0.00,,,0.01,Wunderground v.1.15,2013-02-15 20:07:00,
2013-02-15 15:13:00,53.4,35.7,26.42,WNW,291,4.0,6.0,51,0.00,,,0.01,Wunderground v.1.15,2013-02-15 20:13:00,
2013-02-15 15:18:00,53.8,36.6,26.42,WNW,292,4.0,6.0,52,0.00,,,0.01,Wunderground v.1.15,2013-02-15 20:18:00,
2013-02-15 15:24:00,54.1,35.9,26.42,West,263,4.0,11.0,50,0.00,,,0.01,Wunderground v.1.15,2013-02-15 20:24:00,
2013-02-15 15:30:00,54.2,35.9,26.42,West,276,6.0,6.0,50,0.00,,,0.01,Wunderground v.1.15,2013-02-15 20:30:00,
2013-02-15 15:35:00,54.3,36.0,26.42,WNW,294,4.0,9.0,50,0.00,,,0.01,Wunderground v.1.15,2013-02-15 20:35:00,
2013-02-15 15:41:00,54.2,36.5,26.42,WSW,247,4.0,4.0,51,0.00,,,0.01,Wunderground v.1.15,2013-02-15 20:41:00,
2013-02-15 15:47:00,54.3,36.0,26.42,West,260,3.0,5.0,50,0.00,,,0.01,Wunderground v.1.15,2013-02-15 20:47:00,
2013-02-15 15:52:00,54.2,35.9,26.42,West,267,2.0,2.0,50,0.00,,,0.01,Wunderground v.1.15,2013-02-15 20:52:00,
2013-02-15 15:58:00,53.9,35.7,26.42,West,265,3.0,6.0,50,0.00,,,0.01,Wunderground v.1.15,2013-02-15 20:58:00,
2013-02-15 16:03:00,53.7,35.5,26.42,WSW,243,4.0,5.0,50,0.00,,,0.01,Wunderground v.1.15,2013-02-15 21:03:00,
2013-02-15 16:09:00,54.0,35.3,26.42,WSW,244,2.0,5.0,49,0.00,,,0.01,Wunderground v.1.15,2013-02-15 21:09:00,
2013-02-15 16:15:00,53.4,35.2,26.42,WSW,247,2.0,5.0,50,0.00,,,0.01,Wunderground v.1.15,2013-02-15 21:15:00,
2013-02-15 16:20:00,52.7,34.6,26.42,West,275,3.0,3.0,50,0.00,,,0.01,Wunderground v.1.15,2013-02-15 21:20:00,
2013-02-15 16:26:00,52.2,34.6,26.42,SW,233,2.0,4.0,51,0.00,,,0.01,Wunderground v.1.15,2013-02-15 21:26:00,
2013-02-15 16:31:00,51.8,34.2,26.42,WSW,238,2.0,5.0,51,0.00,,,0.01,Wunderground v.1.15,2013-02-15 21:31:00,
2013-02-15 16:36:00,51.9,34.3,26.42,WSW,240,2.0,5.0,51,0.00,,,0.01,Wunderground v.1.15,2013-02-15 21:36:00,
2013-02-15 16:42:00,51.6,35.5,26.42,WSW,240,1.0,6.0,54,0.00,,,0.01,Wunderground v.1.15,2013-02-15 21:42:00,
2013-02-15 16:48:00,51.1,35.5,26.42,WSW,240,0.0,6.0,55,0.00,,,0.01,Wunderground v.1.15,2013-02-15 21:48:00,
2013-02-15 16:54:00,50.8,35.2,26.42,WSW,240,0.0,0.0,55,0.00,,,0.01,Wunderground v.1.15,2013-02-15 21:54:00,
2013-02-15 16:59:00,50.5,35.4,26.42,WSW,240,0.0,0.0,56,0.00,,,0.01,Wunderground v.1.15,2013-02-15 21:59:00,
2013-02-15 17:05:00,49.9,35.3,26.42,WSW,240,0.0,0.0,57,0.00,,,0.01,Wunderground v.1.15,2013-02-15 22:05:00,
2013-02-15 17:11:00,49.4,34.3,26.42,WSW,240,0.0,1.0,56,0.00,,,0.01,Wunderground v.1.15,2013-02-15 22:11:00,
2013-02-15 17:16:00,49.0,34.4,26.42,WSW,240,0.0,1.0,57,0.00,,,0.01,Wunderground v.1.15,2013-02-15 22:16:00,
2013-02-15 17:21:00,48.5,33.9,26.42,WSW,240,0.0,0.0,57,0.00,,,0.01,Wunderground v.1.15,2013-02-15 22:21:00,
2013-02-15 17:27:00,48.2,33.7,26.42,WSW,240,0.0,0.0,57,0.00,,,0.01,Wunderground v.1.15,2013-02-15 22:27:00,
2013-02-15 17:33:00,47.6,33.1,26.42,WSW,240,0.0,0.0,57,0.00,,,0.01,Wunderground v.1.15,2013-02-15 22:33:00,
2013-02-15 17:39:00,47.1,33.1,26.42,WSW,240,0.0,0.0,58,0.00,,,0.01,Wunderground v.1.15,2013-02-15 22:39:00,
2013-02-15 17:44:00,46.6,32.6,26.42,WSW,240,0.0,0.0,58,0.00,,,0.01,Wunderground v.1.15,2013-02-15 22:44:00,
2013-02-15 17:50:00,46.0,32.0,26.42,WSW,240,0.0,0.0,58,0.00,,,0.01,Wunderground v.1.15,2013-02-15 22:50:00,
2013-02-15 17:56:00,45.4,31.9,26.42,WSW,240,0.0,0.0,59,0.00,,,0.01,Wunderground v.1.15,2013-02-15 22:56:00,
2013-02-15 18:02:00,44.9,31.8,26.42,WSW,240,0.0,0.0,60,0.00,,,0.01,Wunderground v.1.15,2013-02-15 23:02:00,
2013-02-15 18:07:00,44.3,31.7,26.42,WSW,240,0.0,0.0,61,0.00,,,0.01,Wunderground v.1.15,2013-02-15 23:07:00,
2013-02-15 18:13:00,43.6,31.0,26.42,WSW,240,0.0,0.0,61,0.00,,,0.01,Wunderground v.1.15,2013-02-15 23:13:00,
2013-02-15 18:18:00,42.9,30.8,26.42,WSW,240,0.0,0.0,62,0.00,,,0.01,Wunderground v.1.15,2013-02-15 23:18:00,
2013-02-15 18:24:00,42.2,30.5,26.42,WSW,240,0.0,0.0,63,0.00,,,0.01,Wunderground v.1.15,2013-02-15 23:24:00,
2013-02-15 18:30:00,41.5,30.2,26.42,WSW,240,0.0,0.0,64,0.00,,,0.01,Wunderground v.1.15,2013-02-15 23:30:00,
2013-02-15 18:35:00,41.0,30.1,26.42,WSW,240,0.0,0.0,65,0.00,,,0.01,Wunderground v.1.15,2013-02-15 23:35:00,
2013-02-15 18:41:00,40.4,29.9,26.42,WSW,240,0.0,0.0,66,0.00,,,0.01,Wunderground v.1.15,2013-02-15 23:41:00,
2013-02-15 18:47:00,39.9,29.8,26.42,WSW,240,0.0,0.0,67,0.00,,,0.01,Wunderground v.1.15,2013-02-15 23:47:00,
2013-02-15 18:52:00,39.5,29.4,26.42,WSW,240,0.0,0.0,67,0.00,,,0.01,Wunderground v.1.15,2013-02-15 23:52:00,
2013-02-15 18:58:00,39.0,29.3,26.42,WSW,240,0.0,0.0,68,0.00,,,0.01,Wunderground v.1.15,2013-02-15 23:58:00,
2013-02-15 19:03:00,38.8,29.5,26.42,WSW,240,0.0,0.0,69,0.00,,,0.01,Wunderground v.1.15,2013-02-16 00:03:00,
2013-02-15 19:09:00,38.7,29.8,26.42,WSW,240,0.0,0.0,70,0.00,,,0.01,Wunderground v.1.15,2013-02-16 00:09:00,
2013-02-15 19:15:00,39.0,30.0,26.42,WSW,240,0.0,0.0,70,0.00,,,0.01,Wunderground v.1.15,2013-02-16 00:15:00,
2013-02-15 19:20:00,39.3,30.0,26.42,WSW,240,0.0,0.0,69,0.00,,,0.01,Wunderground v.1.15,2013-02-16 00:20:00,
2013-02-15 19:26:00,39.9,29.8,26.42,WSW,240,0.0,0.0,67,0.00,,,0.01,Wunderground v.1.15,2013-02-16 00:26:00,
2013-02-15 19:32:00,40.9,30.4,26.42,WSW,240,0.0,0.0,66,0.00,,,0.01,Wunderground v.1.15,2013-02-16 00:32:00,
2013-02-15 19:37:00,41.6,29.9,26.42,WSW,240,0.0,0.0,63,0.00,,,0.01,Wunderground v.1.15,2013-02-16 00:37:00,
2013-02-15 19:43:00,42.3,30.2,26.42,WSW,240,0.0,0.0,62,0.00,,,0.01,Wunderground v.1.15,2013-02-16 00:43:00,
2013-02-15 19:48:00,42.7,29.8,26.42,WSW,240,0.0,0.0,60,0.00,,,0.01,Wunderground v.1.15,2013-02-16 00:48:00,
2013-02-15 19:54:00,42.9,30.0,26.42,WSW,240,0.0,0.0,60,0.00,,,0.01,Wunderground v.1.15,2013-02-16 00:54:00,
2013-02-15 19:59:00,42.9,30.0,26.42,WSW,240,0.0,0.0,60,0.00,,,0.01,Wunderground v.1.15,2013-02-16 00:59:00,
2013-02-15 20:05:00,42.8,29.5,26.42,WSW,240,0.0,0.0,59,0.00,,,0.01,Wunderground v.1.15,2013-02-16 01:05:00,
2013-02-15 20:11:00,42.7,29.8,26.42,WSW,240,0.0,0.0,60,0.00,,,0.01,Wunderground v.1.15,2013-02-16 01:11:00,
2013-02-15 20:17:00,42.7,30.2,26.42,WSW,240,0.0,0.0,61,0.00,,,0.01,Wunderground v.1.15,2013-02-16 01:17:00,
2013-02-15 20:22:00,42.5,30.0,26.42,WSW,240,0.0,0.0,61,0.00,,,0.01,Wunderground v.1.15,2013-02-16 01:22:00,
2013-02-15 20:28:00,42.5,29.6,26.42,WSW,240,0.0,0.0,60,0.00,,,0.01,Wunderground v.1.15,2013-02-16 01:28:00,
2013-02-15 20:33:00,42.8,29.9,26.42,WSW,240,0.0,0.0,60,0.00,,,0.01,Wunderground v.1.15,2013-02-16 01:33:00,
2013-02-15 20:39:00,42.9,30.0,26.42,WSW,240,0.0,0.0,60,0.00,,,0.01,Wunderground v.1.15,2013-02-16 01:39:00,
2013-02-15 20:45:00,42.8,29.5,26.42,WSW,240,0.0,1.0,59,0.00,,,0.01,Wunderground v.1.15,2013-02-16 01:45:00,
2013-02-15 20:50:00,42.7,28.5,26.42,WSW,240,0.0,0.0,57,0.00,,,0.01,Wunderground v.1.15,2013-02-16 01:50:00,
2013-02-15 20:55:00,42.8,29.0,26.42,WSW,240,0.0,0.0,58,0.00,,,0.01,Wunderground v.1.15,2013-02-16 01:55:00,
2013-02-15 21:00:00,42.9,29.1,26.42,SW,233,0.0,0.0,58,0.00,,,0.01,Wunderground v.1.15,2013-02-16 02:00:00,
2013-02-15 21:06:00,43.2,29.4,26.42,SW,233,0.0,3.0,58,0.00,,,0.01,Wunderground v.1.15,2013-02-16 02:06:00,
2013-02-15 21:12:00,43.5,29.7,26.42,SW,232,1.0,4.0,58,0.00,,,0.01,Wunderground v.1.15,2013-02-16 02:12:00,
2013-02-15 21:17:00,43.5,30.1,26.42,SW,233,1.0,4.0,59,0.00,,,0.01,Wunderground v.1.15,2013-02-16 02:17:00,
2013-02-15 21:22:00,43.3,30.7,26.42,SW,233,0.0,5.0,61,0.00,,,0.01,Wunderground v.1.15,2013-02-16 02:22:00,
2013-02-15 21:28:00,43.0,30.9,26.42,SW,236,1.0,5.0,62,0.00,,,0.01,Wunderground v.1.15,2013-02-16 02:28:00,
2013-02-15 21:33:00,42.7,31.4,26.42,West,276,1.0,1.0,64,0.00,,,0.01,Wunderground v.1.15,2013-02-16 02:33:00,
2013-02-15 21:39:00,42.3,31.7,26.42,WNW,284,0.0,1.0,66,0.00,,,0.01,Wunderground v.1.15,2013-02-16 02:39:00,
2013-02-15 21:45:00,41.9,32.1,26.42,NW,310,1.0,5.0,68,0.00,,,0.01,Wunderground v.1.15,2013-02-16 02:45:00,
2013-02-15 21:50:00,41.6,32.5,26.42,West,281,1.0,2.0,70,0.00,,,0.01,Wunderground v.1.15,2013-02-16 02:50:00,
2013-02-15 21:56:00,41.1,32.4,26.42,NW,305,1.0,2.0,71,0.00,,,0.01,Wunderground v.1.15,2013-02-16 02:56:00,
2013-02-15 22:02:00,40.6,32.6,26.42,WSW,252,1.0,8.0,73,0.00,,,0.01,Wunderground v.1.15,2013-02-16 03:02:00,
2013-02-15 22:07:00,40.2,33.2,26.42,SW,233,2.0,8.0,76,0.00,,,0.01,Wunderground v.1.15,2013-02-16 03:07:00,
2013-02-15 22:13:00,39.4,33.4,26.42,WSW,254,1.0,2.0,79,0.00,,,0.01,Wunderground v.1.15,2013-02-16 03:13:00,
2013-02-15 22:18:00,38.8,33.2,26.42,WSW,242,1.0,4.0,80,0.00,,,0.01,Wunderground v.1.15,2013-02-16 03:18:00,
2013-02-15 22:24:00,38.2,33.2,26.42,WSW,244,1.0,7.0,82,0.00,,,0.01,Wunderground v.1.15,2013-02-16 03:24:00,
2013-02-15 22:30:00,37.8,33.1,26.42,WNW,295,1.0,1.0,83,0.00,,,0.01,Wunderground v.1.15,2013-02-16 03:30:00,
2013-02-15 22:35:00,37.4,33.0,26.42,West,275,1.0,5.0,84,0.00,,,0.01,Wunderground v.1.15,2013-02-16 03:35:00,
2013-02-15 22:41:00,36.9,32.8,26.42,WNW,286,1.0,1.0,85,0.00,,,0.02,Wunderground v.1.15,2013-02-16 03:41:00,
2013-02-15 22:47:00,36.5,32.7,26.42,WNW,284,1.0,1.0,86,0.00,,,0.02,Wunderground v.1.15,2013-02-16 03:47:00,
2013-02-15 22:53:00,36.2,32.7,26.42,West,275,1.0,4.0,87,0.00,,,0.02,Wunderground v.1.15,2013-02-16 03:53:00,
2013-02-15 22:58:00,35.8,32.6,26.42,West,270,1.0,4.0,88,0.00,,,0.02,Wunderground v.1.15,2013-02-16 03:58:00,
2013-02-15 23:03:00,35.5,32.3,26.42,West,271,0.0,1.0,88,0.00,,,0.02,Wunderground v.1.15,2013-02-16 04:03:00,
2013-02-15 23:09:00,35.2,32.0,26.42,West,271,0.0,1.0,88,0.00,,,0.03,Wunderground v.1.15,2013-02-16 04:09:00,
2013-02-15 23:14:00,34.9,31.7,26.42,West,271,0.0,0.0,88,0.07,,,0.04,Wunderground v.1.15,2013-02-16 04:14:00,
2013-02-15 23:20:00,34.6,31.7,26.42,West,271,0.0,0.0,89,0.07,,,0.04,Wunderground v.1.15,2013-02-16 04:20:00,
2013-02-15 23:25:00,34.4,31.5,26.42,West,271,0.0,0.0,89,0.06,,,0.05,Wunderground v.1.15,2013-02-16 04:25:00,
2013-02-15 23:31:00,34.3,31.4,26.42,West,271,0.0,0.0,89,0.06,,,0.05,Wunderground v.1.15,2013-02-16 04:31:00,
2013-02-15 23:36:00,34.1,31.5,26.42,West,271,0.0,0.0,90,0.05,,,0.05,Wunderground v.1.15,2013-02-16 04:36:00,
2013-02-15 23:42:00,34.0,31.4,26.42,West,271,0.0,0.0,90,0.05,,,0.06,Wunderground v.1.15,2013-02-16 04:42:00,
2013-02-15 23:48:00,33.9,31.3,26.42,West,271,0.0,0.0,90,0.05,,,0.06,Wunderground v.1.15,2013-02-16 04:48:00,
2013-02-15 23:54:00,33.8,31.2,26.42,West,271,0.0,0.0,90,0.00,,,0.06,Wunderground v.1.15,2013-02-16 04:54:00,
2013-02-15 23:59:00,33.7,31.4,26.42,West,271,0.0,0.0,91,0.00,,,0.07,Wunderground v.1.15,2013-02-16 04:59:00,